CST,Max TemperatureF,Mean TemperatureF,Min TemperatureF,Max Dew PointF,MeanDew PointF,Min DewpointF,Max Humidity, Mean Humidity, Min Humidity, Max Sea Level PressureIn, Mean Sea Level PressureIn, Min Sea Level PressureIn, Max VisibilityMiles, Mean VisibilityMiles, Min VisibilityMiles, Max Wind SpeedMPH, Mean Wind SpeedMPH, Max Gust SpeedMPH,PrecipitationIn, CloudCover, Events, WindDirDegrees
2014-1-1,66,58,50,50,48,46,94,73,49,30.29,30.16,29.91,10,9,8,5,0,,0.00,8,,265
2014-1-2,73,60,48,52,44,39,94,63,29,30.30,30.13,29.86,10,9,8,109,8,,0.00,4,,60
2014-1-3,71,56,42,43,40,37,81,60,31,30.35,30.19,29.94,10,9,8,12,7,,0.00,2,,64
2014-1-4,73,57,41,45,40,32,93,60,23,30.29,30.15,29.90,10,8,8,15,3,,0.00,2,,274
2014-1-5,73,58,42,46,39,34,87,54,25,30.27,30.10,29.57,10,9,8,12,3,,0.00,4,,266
2014-1-6,71,58,44,46,42,37,82,62,35,30.33,30.16,29.78,10,9,8,22,4,,0.00,6,,72
2014-1-7,69,53,37,45,39,36,93,64,33,30.38,30.25,30.03,10,9,8,10,6,,0.00,5,,78
2014-1-8,73,58,42,45,39,32,87,57,23,30.38,30.20,29.91,10,9,7,10,2,,0.00,2,,238
2014-1-9,77,60,42,43,36,25,87,46,14,30.32,30.16,29.75,10,9,5,17,3,,0.00,1,,233
2014-1-10,77,60,44,52,38,34,71,50,21,30.27,30.08,29.68,10,9,8,15,6,,0.00,3,,317
2014-1-11,75,63,51,46,41,36,82,48,29,30.32,30.15,29.88,10,9,8,14,6,,0.00,6,,45
2014-1-12,75,60,46,50,44,32,88,59,34,30.33,30.17,29.84,10,9,8,17,4,,0.00,3,,268
2014-1-13,73,60,46,50,37,23,93,54,15,30.36,30.20,29.94,10,9,7,16,4,,0.00,0,,338
2014-1-14,73,57,41,39,35,32,70,44,23,30.32,30.17,29.95,10,9,8,14,6,,0.00,1,,353
2014-1-15,68,56,42,37,33,30,61,43,26,30.41,30.22,29.96,10,9,8,14,8,21,0.00,2,,55
2014-1-16,71,53,35,32,31,30,87,50,22,30.32,30.17,29.91,10,9,8,15,4,,0.00,4,,312
2014-1-17,73,55,37,45,28,14,81,40,15,30.30,30.15,29.90,10,9,8,13,5,,0.00,1,,78
2014-1-18,73,55,37,32,30,18,75,41,18,30.32,30.19,29.91,10,9,8,8,3,,0.00,3,,164
2014-1-19,75,57,39,34,30,27,75,39,18,30.37,30.22,29.95,10,9,8,10,3,,0.00,4,,98
2014-1-20,77,57,37,36,32,28,81,43,22,30.35,30.20,29.94,10,9,6,9,3,,0.00,2,,290
2014-1-21,78,60,42,37,33,27,76,42,15,30.35,30.21,29.89,10,9,6,14,5,,0.00,4,,68
2014-1-22,77,57,37,34,32,28,81,45,17,30.35,30.15,29.87,10,9,8,9,3,,0.00,0,,44
2014-1-23,80,62,44,43,39,34,71,47,21,30.32,30.13,29.84,10,8,6,8,3,,0.00,3,,1
2014-1-24,78,64,51,45,43,39,76,51,26,30.41,30.23,29.95,10,9,8,17,7,,0.00,1,,73
2014-1-25,80,63,46,46,42,36,87,51,21,30.38,30.20,29.88,10,9,8,17,5,,0.00,4,,65
2014-1-26,80,63,46,43,37,30,76,44,18,30.30,30.10,29.65,10,9,8,17,3,,0.00,1,,274
2014-1-27,80,63,46,37,36,34,71,41,18,30.27,30.06,29.75,10,9,8,10,2,,0.00,0,,269
2014-1-28,80,63,46,41,36,27,76,42,14,30.24,30.03,29.69,10,9,8,20,5,,0.00,3,,242
2014-1-29,78,61,44,39,35,25,76,45,15,30.21,30.04,29.72,10,9,6,15,3,23,0.00,3,,280
2014-1-30,77,60,42,43,36,30,87,49,18,30.30,30.13,29.84,10,9,8,7,3,,0.00,1,,347
2014-1-31,80,61,42,36,34,30,71,41,16,30.26,30.08,29.77,10,8,6,9,5,,0.00,1,,360